IZ1UQG-2 Weather Reports


Display with metric or nautical units.
time (UTC)temp
F
wind
direction
speed
MPH
gust
MPH
rain 1hr
in
rain 24hr
in
rain mn
in
humidity
%
barometer
mb
20260831124806 85 88 6.0 10.0 0.00 5.04 5.04 54 1011.7
20260831124405 85 87 6.0 10.0 0.00 5.04 5.04 54 1011.7
20260831124005 84 92 6.0 10.0 0.00 5.04 5.04 54 1011.7
20260831123605 85 91 4.0 10.0 0.00 5.04 5.04 53 1011.8
20260831123205 85 89 2.0 10.0 0.00 6.04 5.04 53 1011.7
20260831122805 85 93 3.0 9.0 0.00 6.05 5.04 53 1011.8
20260831122404 85 102 5.0 9.0 0.00 6.05 5.04 53 1011.7
20260831122005 85 104 6.0 9.0 0.00 6.05 5.04 53 1011.7
20260831121604 85 98 6.0 9.0 0.00 6.05 5.04 53 1011.8
20260831121205 84 88 6.0 7.0 0.00 6.05 5.04 54 1011.9
20260831120404 84 55 5.0 9.0 0.00 7.06 5.04 54 1011.9
20260831120005 84 41 4.0 9.0 0.00 7.06 5.04 54 1011.9
20260831115604 84 50 4.0 8.0 0.00 7.06 5.04 53 1012.0
20260831115205 84 89 4.0 9.0 0.00 7.06 5.04 53 1012.0
20260831114805 84 95 5.0 11.0 0.00 7.06 5.04 54 1012.0
20260831114404 84 90 7.0 11.0 0.00 7.06 5.04 54 1012.0
20260831114005 83 83 7.0 11.0 0.00 7.06 5.04 55 1012.2
20260831113604 83 87 6.0 12.0 1.00 7.06 5.04 53 1012.1
20260831112804 83 93 6.0 12.0 1.00 8.06 5.04 53 1012.3
20260831112404 83 83 5.0 11.0 1.00 9.07 5.04 52 1012.3
20260831111204 84 87 4.0 10.0 1.01 1.00 5.04 52 1012.4
20260831110804 84 76 4.0 10.0 1.01 1.00 5.04 51 1012.4
20260831110404 83 78 6.0 10.0 1.01 1.00 5.04 52 1012.4
20260831110004 83 78 5.0 10.0 1.01 1.00 5.04 52 1012.5
20260831105204 84 47 4.0 8.0 2.01 1.00 5.04 52 1012.4
20260831104805 83 38 4.0 8.0 2.01 1.00 5.04 53 1012.6
20260831104404 83 33 3.0 8.0 2.02 1.00 5.04 51 1012.6
20260831103205 82 0 0.0 0.0 2.02 1.00 4.04 54 1012.6
20260831102805 82 104 2.0 5.0 2.02 1.10 4.04 54 1012.6
20260831102404 82 91 3.0 5.0 2.02 1.10 4.04 54 1012.8
20260831102005 83 88 3.0 5.0 2.02 1.10 4.03 54 1012.8
20260831101604 82 45 3.0 5.0 2.02 1.20 4.03 53 1012.8
20260831100805 82 110 4.0 8.0 2.02 1.41 4.03 53 1012.8
20260831100405 82 113 3.0 8.0 2.02 1.41 4.03 54 1012.8
20260831100004 81 77 3.0 7.0 2.02 1.41 4.03 54 1012.9
20260831095605 81 53 2.0 6.0 3.02 1.51 4.03 56 1012.9
20260831095205 81 67 2.0 6.0 2.02 1.51 3.03 61 1012.9
20260831094804 81 35 2.0 5.0 2.02 1.51 3.03 61 1013.0
20260831094405 81 24 3.0 5.0 2.02 1.51 3.02 61 1013.0
20260831094006 80 41 3.0 5.0 2.02 1.51 3.02 61 1013.1
20260831093605 81 101 2.0 5.0 1.02 1.51 2.02 58 1013.2
20260831093205 81 108 2.0 6.0 1.01 1.51 2.02 58 1013.1
20260831092804 81 80 2.0 6.0 1.01 1.51 2.02 59 1013.1
20260831092405 80 2 1.0 2.0 1.01 1.51 2.02 59 1013.2
20260831092005 80 278 1.0 3.0 1.01 1.51 2.02 59 1013.2
20260831091605 80 128 1.0 4.0 1.01 1.51 2.02 59 1013.2
20260831090406 78 1 0.0 2.0 2.02 1.51 2.02 62 1013.5
20260831090005 80 0 0.0 0.0 1.02 1.41 1.02 62 1013.4
20260831085605 80 0 0.0 0.0 1.02 1.41 1.02 62 1013.5
20260831085204 80 14 1.0 5.0 1.02 1.41 1.02 66 1013.4
20260831084805 79 14 3.0 5.0 1.02 1.41 1.02 66 1013.4
20260831084405 79 12 5.0 5.0 1.01 1.41 1.01 66 1013.5
20260831083604 77 356 3.0 5.0 1.01 1.41 1.01 66 1013.5
20260831083205 77 348 2.0 4.0 1.01 1.41 1.01 66 1013.4
20260831082804 77 350 2.0 4.0 1.01 1.41 1.01 66 1013.5
20260831082404 76 352 2.0 5.0 1.01 1.41 1.01 67 1013.5
20260831081606 75 337 3.0 7.0 1.01 1.41 1.01 68 1013.6
20260831081204 75 341 5.0 8.0 0.00 1.31 0.00 70 1013.6
20260831080805 75 340 5.0 8.0 0.00 1.31 0.00 69 1013.5
20260831080404 74 344 5.0 8.0 0.00 1.31 0.00 69 1013.6
20260831080005 74 344 4.0 8.0 0.00 1.31 0.00 69 1013.6
20260831075605 74 350 3.0 5.0 0.00 1.31 0.00 68 1013.6
20260831075205 74 347 3.0 5.0 0.00 1.31 0.00 69 1013.5
20260831074805 74 338 3.0 5.0 0.00 1.31 0.00 70 1013.5
20260831074405 74 339 4.0 6.0 0.00 1.31 0.00 70 1013.5
20260831074004 74 345 4.0 8.0 0.00 1.31 0.00 71 1013.5
20260831073605 74 346 4.0 8.0 0.00 1.31 0.00 71 1013.5
20260831073204 73 350 4.0 8.0 0.00 1.31 0.00 71 1013.6
20260831072805 73 350 3.0 5.0 0.00 1.31 0.00 71 1013.6
20260831072405 73 358 2.0 5.0 0.00 1.31 0.00 71 1013.6
20260831072004 73 350 2.0 4.0 0.00 1.31 0.00 72 1013.7
20260831071605 73 343 2.0 4.0 0.00 1.31 0.00 72 1013.7
20260831070804 72 357 2.0 5.0 0.00 1.31 0.00 73 1013.7
20260831070406 72 354 4.0 7.0 0.00 1.31 0.00 73 1013.7
20260831070005 72 352 4.0 7.0 0.00 1.31 0.00 73 1013.6
20260831065604 72 350 3.0 6.0 0.00 1.31 0.00 72 1013.6
20260831065205 72 3 2.0 5.0 0.00 1.31 0.00 72 1013.7
20260831064805 73 4 2.0 5.0 0.00 1.31 0.00 72 1013.7
20260831064404 72 3 2.0 6.0 0.00 1.31 0.00 72 1013.9
20260831064005 72 355 4.0 7.0 0.00 1.31 0.00 72 1013.7
20260831063604 72 350 4.0 8.0 0.00 1.31 0.00 73 1013.8
20260831063204 72 347 4.0 8.0 0.00 1.31 0.00 74 1013.8
20260831062805 72 346 3.0 7.0 0.00 1.31 0.00 74 1013.8
20260831062404 72 341 2.0 4.0 0.00 1.31 0.00 75 1013.8
20260831062005 71 341 3.0 5.0 0.00 1.31 0.00 75 1013.8
20260831061605 71 344 3.0 5.0 0.00 1.31 0.00 76 1013.8
20260831061204 71 346 3.0 5.0 0.00 1.31 0.00 76 1013.8
20260831060805 71 345 3.0 5.0 0.00 1.31 0.00 76 1013.8
20260831060405 70 341 3.0 5.0 0.00 1.31 0.00 77 1013.8
20260831055604 71 345 3.0 5.0 0.00 1.31 0.00 77 1013.7
20260831055204 71 354 2.0 5.0 0.00 1.31 0.00 75 1013.7
20260831054805 71 21 1.0 4.0 0.00 1.31 0.00 75 1013.8
20260831054405 71 111 1.0 3.0 0.00 1.31 0.00 76 1013.8
20260831054004 70 111 1.0 3.0 0.00 1.31 0.00 77 1013.7
20260831053604 70 5 0.0 1.0 0.00 1.31 0.00 78 1013.7
20260831053204 70 5 0.0 1.0 0.00 1.31 0.00 78 1013.7
20260831052805 70 31 0.0 2.0 0.00 1.31 0.00 78 1013.6
20260831052404 70 60 1.0 3.0 0.00 1.31 0.00 78 1013.6
20260831052005 70 87 1.0 3.0 0.00 1.31 0.00 77 1013.5
20260831051604 70 98 1.0 3.0 0.00 1.31 0.00 78 1013.6
20260831051204 70 57 0.0 2.0 0.00 1.31 0.00 79 1013.6
20260831050805 69 52 0.0 2.0 0.00 1.31 0.00 80 1013.6
20260831050405 69 34 0.0 1.0 0.00 1.31 0.00 79 1013.5
20260831050005 70 8 0.0 2.0 0.00 1.31 0.00 79 1013.5
20260831045604 69 355 1.0 4.0 0.00 1.31 0.00 79 1013.5
20260831044804 70 27 2.0 4.0 0.00 1.31 0.00 78 1013.4
20260831044405 70 41 1.0 4.0 0.00 1.31 0.00 78 1013.4
20260831043604 70 70 1.0 7.0 0.00 1.31 0.00 77 1013.3
20260831043205 70 61 2.0 7.0 0.00 1.31 0.00 77 1013.3
20260831042804 70 25 2.0 6.0 0.00 1.31 0.00 77 1013.4
20260831042404 70 8 2.0 6.0 0.00 1.31 0.00 77 1013.4
20260831042006 70 356 2.0 6.0 0.00 1.31 0.00 78 1013.5
20260831041604 70 334 1.0 3.0 0.00 1.31 0.00 78 1013.4
20260831040804 70 320 0.0 1.0 0.00 1.31 0.00 78 1013.2
20260831040404 70 324 1.0 3.0 0.00 1.31 0.00 78 1013.2
20260831040005 71 306 1.0 3.0 0.00 1.31 0.00 77 1013.3
20260831035205 71 207 1.0 3.0 0.00 1.31 0.00 77 1013.4
20260831034405 70 204 3.0 5.0 0.00 1.31 0.00 78 1013.4
20260831034005 70 201 2.0 5.0 0.00 1.31 0.00 78 1013.5
20260831033605 70 204 3.0 9.0 0.00 1.31 0.00 78 1013.6
20260831033204 70 204 4.0 9.0 0.00 1.31 0.00 79 1013.7
20260831032806 70 212 4.0 8.0 0.00 1.31 0.00 79 1013.8
20260831032405 70 263 3.0 6.0 0.00 1.31 0.00 79 1013.8
20260831032005 70 334 3.0 7.0 0.00 1.31 0.00 79 1014.0
20260831031604 70 350 5.0 9.0 0.00 1.31 0.00 79 1013.9
20260831031204 70 351 5.0 9.0 0.00 1.31 0.00 78 1013.9
20260831030804 70 337 4.0 8.0 0.00 1.31 0.00 77 1013.9
20260831030004 72 300 1.0 4.0 0.00 1.31 0.00 74 1013.3
20260831025605 72 167 0.0 2.0 0.00 1.31 0.00 73 1013.1
20260831025205 72 162 1.0 3.0 0.00 1.31 0.00 74 1013.2
20260831024804 72 158 1.0 3.0 0.00 1.31 0.00 74 1013.3
20260831024404 72 154 1.0 3.0 0.00 1.31 0.00 75 1013.3
20260831023605 71 309 1.0 2.0 0.00 1.31 0.00 76 1013.6
20260831023204 71 315 1.0 3.0 0.00 1.31 0.00 76 1013.6
20260831022804 71 311 1.0 3.0 0.00 1.31 0.00 76 1013.6
20260831022405 71 300 1.0 3.0 0.00 1.31 0.00 76 1013.6
20260831022004 72 222 0.0 1.0 0.00 1.31 0.00 75 1013.7
20260831021605 72 190 0.0 2.0 0.00 1.31 0.00 76 1013.5
20260831021204 71 211 0.0 2.0 0.00 1.31 0.00 76 1013.5
20260831020804 71 241 0.0 2.0 0.00 1.31 0.00 76 1013.5
20260831020405 71 12 1.0 2.0 0.00 1.31 0.00 76 1013.5
20260831020004 71 348 1.0 4.0 0.00 1.31 0.00 76 1013.5
20260831015605 71 342 1.0 4.0 0.00 1.31 0.00 76 1013.6
20260831015205 71 335 1.0 4.0 0.00 1.31 0.00 76 1013.6
20260831014805 71 325 1.0 4.0 0.00 1.31 0.00 75 1013.5
20260831014404 71 312 1.0 4.0 0.00 1.31 0.00 76 1013.5
20260831014005 72 307 1.0 4.0 0.00 1.31 0.00 76 1013.5
20260831013604 72 274 0.0 2.0 0.00 1.31 0.00 75 1013.5
20260831013205 72 272 0.0 2.0 0.00 1.31 0.00 75 1013.6
20260831012804 72 286 0.0 2.0 0.00 1.31 0.00 75 1013.7
20260831012404 72 311 0.0 2.0 0.00 1.31 0.00 75 1013.7
20260831012005 72 328 1.0 2.0 0.00 1.31 0.00 75 1013.7
20260831011205 72 349 2.0 5.0 0.00 1.31 0.00 75 1013.5
20260831010804 72 342 2.0 5.0 0.00 1.31 0.00 75 1013.6
20260831010404 72 330 3.0 5.0 0.00 1.31 0.00 74 1013.6
20260831010005 72 322 2.0 5.0 0.00 1.31 0.00 74 1013.6
20260831005604 72 317 1.0 4.0 0.00 1.31 0.00 74 1013.6
20260831005204 72 333 0.0 2.0 0.00 1.31 0.00 74 1013.6
20260831004805 72 336 0.0 1.0 0.00 1.31 0.00 75 1013.7
20260831004404 72 332 0.0 3.0 0.00 1.31 0.00 74 1013.6
20260831004005 72 270 1.0 3.0 0.00 1.31 0.00 75 1013.7
20260831003604 72 264 2.0 4.0 0.00 1.31 0.00 76 1013.6
20260831003204 72 273 2.0 4.0 0.00 1.31 0.00 75 1013.6
20260831002805 72 287 1.0 4.0 0.00 1.31 0.00 75 1013.6
20260831002404 72 276 1.0 3.0 0.00 1.31 0.00 74 1013.5
20260831002005 73 280 1.0 3.0 0.00 1.31 0.00 74 1013.5
20260831001604 73 286 2.0 3.0 0.00 1.31 0.00 73 1013.5
20260831001205 73 297 1.0 3.0 0.00 1.31 0.00 74 1013.5
20260831000805 73 333 1.0 4.0 0.00 1.31 0.00 74 1013.5
20260831000404 72 342 2.0 4.0 0.00 1.31 0.00 74 1013.6
20260831000005 72 325 2.0 3.0 0.00 1.31 0.00 74 1013.7
20260830235604 72 311 2.0 3.0 0.00 1.31 0.00 75 1013.7
20260830235205 72 306 1.0 3.0 0.00 1.31 0.00 75 1013.7
20260830234805 73 226 1.0 5.0 0.00 1.31 0.00 74 1013.7
20260830234404 73 220 2.0 5.0 0.00 1.31 0.00 74 1013.6
20260830234004 73 222 2.0 5.0 0.00 1.31 0.00 74 1013.7
20260830233605 73 249 1.0 2.0 0.00 1.31 0.00 73 1013.7
20260830233204 74 245 1.0 2.0 0.00 1.31 0.00 72 1013.7
20260830232804 73 244 1.0 2.0 0.00 1.31 0.00 72 1013.8
20260830232004 74 256 1.0 2.0 0.00 1.31 0.00 72 1013.7
20260830231605 74 287 1.0 3.0 0.00 1.31 0.00 72 1013.8
20260830231204 73 289 1.0 3.0 0.00 1.31 0.00 72 1013.8
20260830230804 73 289 1.0 3.0 0.00 1.31 0.00 72 1013.9
20260830230405 73 294 1.0 4.0 0.00 1.31 0.00 72 1013.8
20260830230004 73 303 1.0 4.0 0.00 1.31 0.00 72 1013.9
20260830225605 73 304 2.0 5.0 0.00 1.31 0.00 72 1013.8
20260830225204 73 305 2.0 5.0 0.00 1.31 0.00 72 1013.8
20260830224804 73 304 1.0 5.0 0.00 1.31 0.00 72 1013.8
20260830224404 74 306 0.0 2.0 0.00 1.31 0.00 73 1013.7
20260830224004 74 307 0.0 2.0 0.00 1.31 0.00 72 1013.6
20260830223604 74 302 1.0 2.0 0.00 1.31 0.00 72 1013.7
20260830223205 74 265 1.0 2.0 0.00 1.31 0.00 73 1013.7
20260830222804 74 240 1.0 2.0 0.00 1.31 0.00 73 1013.7
20260830222404 73 239 1.0 3.0 0.00 1.31 0.00 73 1013.8
20260830222005 73 238 1.0 3.0 0.00 1.31 0.00 73 1013.8
20260830221604 74 247 1.0 3.0 0.00 1.31 0.00 72 1013.7
20260830221205 74 263 1.0 3.0 0.00 1.31 0.00 71 1013.7
20260830220805 74 251 1.0 3.0 0.00 1.31 0.00 72 1013.7
20260830220405 73 240 1.0 3.0 0.00 1.31 0.00 72 1013.8
20260830220007 73 237 2.0 3.0 0.00 1.31 0.00 73 1013.7
20260830215604 73 245 1.0 3.0 0.00 1.31 1.31 73 1013.7
20260830215204 74 266 1.0 3.0 0.00 1.31 1.31 72 1013.7
20260830214804 74 258 1.0 4.0 0.00 1.31 1.31 72 1013.6
20260830214404 74 259 1.0 4.0 0.00 1.31 1.31 72 1013.6
20260830214006 74 282 1.0 2.0 0.00 1.31 1.31 72 1013.6
20260830213604 74 267 1.0 2.0 0.00 1.31 1.31 73 1013.6
20260830212804 73 228 2.0 5.0 0.00 1.31 1.31 73 1013.7
20260830211604 73 250 2.0 6.0 0.00 1.31 1.31 73 1013.4
20260830210005 74 300 0.0 1.0 0.00 1.31 1.31 71 1013.3
20260830205604 74 305 0.0 2.0 0.00 1.31 1.31 70 1013.3
20260830205205 75 325 0.0 2.0 0.00 1.31 1.31 71 1013.2
20260830204404 75 346 1.0 3.0 0.00 1.31 1.31 69 1013.2
20260830203605 74 346 3.0 4.0 0.00 1.31 1.31 72 1013.1
20260830203204 74 333 3.0 4.0 0.00 1.31 1.31 71 1013.2
20260830202404 75 297 2.0 5.0 0.00 1.31 1.31 70 1013.1
20260830202006 75 276 2.0 5.0 0.00 1.31 1.31 69 1013.1
20260830201604 75 282 1.0 4.0 0.00 1.31 1.31 68 1013.1
20260830201205 75 310 1.0 3.0 0.00 1.31 1.31 68 1013.1
20260830200804 75 303 2.0 5.0 0.00 1.31 1.31 68 1013.0
20260830200405 75 280 2.0 6.0 0.00 1.31 1.31 68 1012.9
20260830200004 75 254 3.0 6.0 0.00 1.31 1.31 69 1012.9
20260830195604 75 236 3.0 5.0 0.00 1.31 1.31 70 1012.9
20260830195205 75 227 3.0 5.0 0.00 1.31 1.31 70 1012.9
20260830194404 75 236 1.0 6.0 0.00 1.31 1.31 70 1013.0
20260830194005 75 211 3.0 8.0 0.00 1.31 1.31 69 1012.9
20260830193604 75 203 5.0 8.0 0.00 1.31 1.31 69 1012.9
20260830193204 75 201 5.0 8.0 0.00 1.31 1.31 69 1012.9
20260830192804 75 201 5.0 8.0 0.00 1.31 1.31 69 1012.8
20260830192404 76 203 5.0 8.0 0.00 1.31 1.31 69 1012.8
20260830192005 76 203 5.0 8.0 0.00 1.31 1.31 68 1012.7
20260830191604 76 204 4.0 7.0 0.00 1.31 1.31 68 1012.7
20260830191204 76 203 4.0 7.0 0.00 1.31 1.31 68 1012.7
20260830190804 76 201 5.0 9.0 0.00 1.31 1.31 68 1012.6
20260830190404 76 200 6.0 9.0 0.00 1.31 1.31 67 1012.6
20260830190005 76 201 6.0 9.0 0.00 1.31 1.31 68 1012.6
20260830185604 76 206 5.0 8.0 0.00 1.31 1.31 68 1012.6
20260830185204 76 211 4.0 8.0 0.00 1.31 1.31 68 1012.5
20260830184805 76 214 4.0 8.0 0.00 1.31 1.31 67 1012.5
20260830184404 76 214 4.0 7.0 0.00 1.31 1.31 67 1012.5
20260830184004 76 212 5.0 7.0 0.00 1.31 1.31 66 1012.4
20260830183604 76 207 5.0 7.0 0.00 1.31 1.31 66 1012.4
20260830183204 76 204 5.0 8.0 0.00 1.31 1.31 66 1012.4
20260830182404 77 203 5.0 8.0 0.00 1.31 1.31 65 1012.2
20260830182004 77 202 4.0 8.0 0.00 1.31 1.31 65 1012.1
20260830181605 77 203 5.0 8.0 0.00 1.31 1.31 65 1012.1
20260830181204 77 206 5.0 8.0 0.00 1.31 1.31 65 1012.1
20260830180404 77 204 5.0 7.0 0.00 1.31 1.31 65 1012.1
20260830180005 77 205 4.0 6.0 0.00 1.31 1.31 65 1012.1
20260830175605 78 208 4.0 7.0 0.00 1.31 1.31 65 1012.0
20260830175204 78 208 4.0 7.0 0.00 1.31 1.31 64 1011.9
20260830174804 78 206 3.0 7.0 0.00 1.31 1.31 64 1012.0
20260830174405 78 205 2.0 5.0 0.00 1.31 1.31 62 1012.0
20260830174005 79 215 2.0 6.0 0.00 1.41 1.31 62 1011.9
20260830173205 79 203 3.0 6.0 0.00 1.41 1.31 61 1011.8
20260830172804 79 206 3.0 5.0 0.00 1.41 1.31 61 1011.8
20260830172404 80 218 3.0 5.0 0.00 1.41 1.31 60 1011.7
20260830171604 80 271 1.0 3.0 0.00 1.41 1.31 58 1011.8
20260830171204 80 280 1.0 3.0 0.00 1.41 1.31 58 1011.7
20260830170804 80 304 1.0 2.0 0.00 1.41 1.31 58 1011.7
20260830170405 80 323 0.0 2.0 0.00 1.41 1.31 57 1011.6
20260830165204 81 294 1.0 3.0 0.00 1.41 1.31 56 1011.6
20260830164404 81 316 2.0 4.0 0.00 1.41 1.31 55 1011.7
20260830164005 81 331 2.0 4.0 0.00 1.41 1.31 56 1011.7
20260830163604 81 346 2.0 3.0 0.00 1.41 1.31 57 1011.7
20260830163204 81 344 2.0 4.0 0.00 1.41 1.31 58 1011.7
20260830162804 82 343 1.0 4.0 0.00 1.41 1.31 56 1011.6
20260830162404 82 349 1.0 3.0 0.00 1.41 1.31 54 1011.6
20260830162005 82 347 1.0 3.0 0.00 1.41 1.31 53 1011.5
20260830161604 82 330 2.0 3.0 0.00 1.41 1.31 54 1011.6
20260830161205 83 326 2.0 4.0 0.00 1.41 1.31 52 1011.6
20260830160404 83 334 2.0 5.0 0.00 1.41 1.31 54 1011.6
20260830160005 83 336 2.0 5.0 0.00 1.41 1.31 52 1011.6
20260830155204 83 355 2.0 6.0 0.00 1.41 1.31 52 1011.7
20260830154804 83 12 3.0 6.0 0.00 1.41 1.31 52 1011.6
20260830154405 83 47 2.0 5.0 0.00 1.41 1.31 52 1011.7
20260830153604 83 94 2.0 7.0 0.00 1.41 1.31 52 1011.8
20260830153204 83 98 2.0 7.0 0.00 1.41 1.31 52 1011.7
20260830152804 83 91 2.0 7.0 0.00 1.41 1.31 52 1011.6
20260830152405 84 94 2.0 7.0 0.00 1.41 1.31 52 1011.6
20260830152005 84 92 2.0 5.0 0.00 1.41 1.31 54 1011.7
20260830151604 83 84 2.0 6.0 0.00 1.41 1.31 54 1011.7
20260830151204 83 83 3.0 7.0 0.00 1.41 1.31 53 1011.8
20260830150804 83 78 2.0 7.0 0.00 1.41 1.31 54 1011.8
20260830150405 83 83 3.0 7.0 0.00 1.41 1.31 54 1011.8
20260830150005 83 85 3.0 6.0 0.00 1.41 1.31 54 1011.8
20260830145604 83 80 3.0 7.0 0.00 1.41 1.31 55 1011.8
20260830145204 83 84 3.0 7.0 0.00 1.41 1.31 55 1011.9
20260830144804 83 76 3.0 7.0 0.00 1.41 1.31 56 1011.9
20260830144404 83 80 3.0 6.0 0.00 1.41 1.31 56 1011.9
20260830144004 83 90 4.0 8.0 0.00 1.41 1.31 56 1011.8
20260830143605 83 91 4.0 8.0 0.00 1.41 1.31 56 1011.9
20260830143204 83 90 5.0 9.0 0.00 1.41 1.31 55 1011.9
20260830142805 83 88 6.0 9.0 0.00 1.41 1.31 55 1011.8
20260830142405 83 83 6.0 9.0 0.00 1.41 1.31 55 1011.9
20260830142004 83 77 5.0 9.0 0.00 1.41 1.31 55 1011.9
20260830141604 83 75 4.0 9.0 0.00 1.41 1.31 54 1011.8
20260830141204 84 84 4.0 10.0 0.00 1.41 1.31 54 1011.9
20260830140804 83 82 5.0 10.0 0.00 1.41 1.31 53 1012.0
20260830140404 83 81 5.0 10.0 0.00 1.41 1.31 52 1012.0
20260830135204 84 84 4.0 8.0 0.00 1.41 1.31 51 1012.0
20260830134804 85 95 4.0 8.0 0.00 1.41 1.31 51 1012.0
20260830134004 83 82 6.0 11.0 0.00 1.41 1.31 51 1012.2
20260830133604 84 86 5.0 11.0 0.00 1.41 1.31 50 1012.1
20260830133204 84 89 3.0 9.0 1.01 1.41 1.31 49 1012.1
20260830132804 85 85 4.0 10.0 1.01 1.41 1.31 49 1012.3
20260830132404 84 88 5.0 11.0 1.01 1.41 1.31 49 1012.3
20260830132006 84 81 5.0 11.0 1.01 1.41 1.31 48 1012.3
20260830131604 84 75 6.0 11.0 1.01 1.41 1.31 49 1012.4
20260830130404 83 80 7.0 12.0 2.02 1.41 1.31 50 1012.5
20260830130005 83 78 7.0 12.0 2.02 1.41 1.31 49 1012.5
20260830125605 83 72 7.0 12.0 2.02 1.41 1.31 50 1012.5